Weather in Blackwater

Australia     23°34′58″S   148°52′41″E
temp.,
°C
wind,
m/s
gust,
m/s
humid.,
%
clouds,
%
prec.,
mm/h
press.,
hPa
HPBL,
m
1 august, sun
sun101:00+16ene33920 0.0 101839
04:00+15ene33965 0.0 101747
07:00+15e229845 0.0 101925
10:00+21nnw347225 0.0 1019666
13:00+27nnw34450 0.0 10161229
16:00+28nnw22360 0.0 10141385
19:00+22nne22500 0.0 101513
22:00+18ne44730 0.0 101653
2 august, mon
mon201:00+16ne44870 0.0 101656
04:00+15nne23910 0.0 101621
07:00+15n22880 0.0 101813
10:00+22n23530 0.0 1019581
13:00+27n33350 0.0 10151123
16:00+28ne33300 0.0 10141481
19:00+21nne59540 0.0 1016115
22:00+17ene22690 0.0 101818
3 august, tue
tue301:00+16nne33760 0.0 101820
04:00+14ne33860 0.0 101725
07:00+14ne22900 0.0 101821
10:00+21nnw35533 0.0 1019802
13:00+26nw55305 0.0 10161644
16:00+27wnw34245 0.0 10141922
19:00+23sw1231100 0.0 101525
22:00+20w125386 0.0 101743
4 august, wed
wed401:00+17se596838 0.0 1017215
04:00+17se345997 0.0 1017194
07:00+16sse4531100 0.0 1020256
10:00+19s33244 0.0 1020954
13:00+22sw65200 0.0 10181516
16:00+22ssw67170 0.0 10171727
19:00+16sse33250 0.0 101813
22:00+14s45320 0.0 102145
5 august, thu
thu501:00+11s33400 0.0 102131
04:00+9s33480 0.0 102128
07:00+8ssw11590 0.0 102322
10:00+15ese13390 0.0 10241210
13:00+19sse13280 0.0 10201624
16:00+21s23226 0.0 10181940
19:00+15sse34345 0.0 102030
22:00+13se44394 0.0 102137